Location: Edmonton
(53.5461°N, 113.4938°W)
Time: 09:45:18
(UTC-06:00)

ISS - Visible Passes

Search period start: 25 May 2020 00:00
Search period end: 04 June 2020 00:00
Orbit: 417 x 420 km, 51.6° (Epoch: 26 May)

Date Brightness Start Highest point End Pass type
(mag) Time Alt. Az. Time Alt. Az. Time Alt. Az.
25 May -2.5 00:29:07 10° W 00:31:56 25° SSW 00:32:11 25° SSW visible
25 May -2.9 23:41:14 10° W 23:44:18 32° SSW 23:45:56 20° SSE visible
26 May -3.1 22:53:23 10° W 22:56:36 41° SSW 22:59:41 11° SE visible
27 May -1.6 00:30:59 10° WSW 00:32:36 14° SW 00:32:36 14° SW visible
27 May -2.0 23:42:42 10° W 23:45:10 19° SSW 23:46:23 16° S visible
28 May -2.3 22:54:40 10° W 22:57:31 25° SSW 23:00:11 11° SSE visible
30 May -1.5 22:56:26 10° WSW 22:58:15 14° SW 23:00:04 10° S visible
